Regional Weather Roundup
Issued by NWS

Home | Current Version | Previous Version | Graphics & Text | Print | Product List | Glossary On
Versions: 1 2 3 4 5 6 7 8 9 10 11 12 13 14 15 16 17 18 19 20 21 22 23 24 25 26 27 28 29 30 31 32 33 34 35 36 37 38 39 40 41 42 43 44 45 46 47 48 49 50
000
ASUS43 KBIS 210710
RWRND

NORTH DAKOTA REGIONAL WEATHER ROUNDUP
NATIONAL WEATHER SERVICE BISMARCK ND
200 AM CDT TUE APR 21 2015

NOTE: "FAIR" INDICATES FEW OR NO CLOUDS BELOW 12,000 FEET WITH NO
SIGNIFICANT WEATHER AND/OR OBSTRUCTIONS TO VISIBILITY.


NDZ001>003-009>011-017-210800-
NORTHWEST NORTH DAKOTA

CITY           SKY/WX    TMP DP  RH WIND       PRES   REMARKS
WILLISTON      CLOUDY    37  21  52 NE9       29.85R
MINOT          CLOUDY    35  23  61 NW8       29.81S
MINOT AFB      CLOUDY    35  25  67 NW7       29.80S
$$

NDZ018>021-031>035-040>046-210800-
SOUTHWEST NORTH DAKOTA

CITY           SKY/WX    TMP DP  RH WIND       PRES   REMARKS
BISMARCK       CLOUDY    38  15  39 N10       29.78S
DICKINSON      MOCLDY    34  17  50 NW8       29.78R
GARRISON         N/A     36  25  64 NE16G25   29.80R
HETTINGER ARPT PTCLDY    26  15  63 CALM      29.79F
$$

NDZ004>008-012>016-024-026-027-054-210800-
NORTHEAST NORTH DAKOTA

CITY           SKY/WX    TMP DP  RH WIND       PRES   REMARKS
GRAND FORKS    CLOUDY    34  28  79 NW18G26   29.62F
GRND FRKS AFB  CLOUDY    34  27  75 N20G26    29.63S
DEVILS LAKE    CLOUDY    36  25  64 N25       29.70S
$$

NDZ022-023-025-028>030-036>039-047>053-210800-
SOUTHEAST NORTH DAKOTA

CITY           SKY/WX    TMP DP  RH WIND       PRES   REMARKS
FARGO          CLOUDY    35  25  66 NW20G29   29.63F
JAMESTOWN      CLEAR     30  24  78 NW12      29.71S
$$



USA.gov is the U.S. government's official web portal to all federal, state and local government web resources and services.